Regional Weather Roundup
Issued by NWS Pendleton, OR

Home | Current Version | Previous Version | Text Only | Print | Product List | Glossary On
Versions: 1 2 3 4 5 6 7 8 9 10 11 12 13 14 15 16 17 18 19 20 21 22 23 24 25 26 27 28 29 30 31 32 33 34 35 36 37 38 39 40 41 42 43 44 45 46 47 48 49 50
776
ASUS46 KPDT 090825
RWRPDT
PENDLETON REGIONAL WEATHER ROUNDUP
NATIONAL WEATHER SERVICE PENDLETON OREGON
1200 AM PST FRI DEC 9 2016

NOTE: FAIR INDICATES FEW OR NO CLOUDS BELOW 12,000 FEET WITH NO
SIGNIFICANT WEATHER AND/OR OBSTRUCTIONS TO VISIBILITY.

# INDICATES UNOFFICIAL STATION AND DATA

WAZ520-090910-
EAST SLOPES OF WASHINGTON CASCADES

CITY            SKY/WX      TMP DP  RH  WIND    PRES   REMARKS
#CLE ELUM HS    N/A         19  16  88  CALM    30.06R
#CLE ELUM LAKE  N/A         16  13  88  CALM    30.25R
#GLENWOOD       N/A         20  18  92  CALM    30.26R
#MANASTASH CYN  N/A         17  11  77  CALM    30.05R
#NELSON 3SW     N/A         15  13  92  CALM    30.47R
#NILE           N/A         18  16  92  NE1     29.48R
#RONALD 2NW     N/A         19  N/A N/A CALM    29.91F
#TROUT LAKE 1NE N/A         20  18  92  CALM    30.24R
#TROUT LAKE 1E  N/A         20  18  92  CALM    30.14R
$$

WAZ521-090910-
SIMCOE HIGHLANDS

CITY            SKY/WX      TMP DP  RH  WIND    PRES   REMARKS
#CENTERVILLE 1SWN/A         16  13  88  CALM    30.23S
#GOLDENDALE 1NE N/A         19  15  84  CALM    N/A
#GOLDENDALE 4W  N/A         18   4  53  CALM    30.16S
#GOODNOE HILLS  N/A         21  16  81  W3      30.06R
#LYLE 6NE       N/A         19  18  96  CALM    30.23S
$$

WAZ026-090910-
KITTITAS VALLEY

CITY            SKY/WX      TMP DP  RH  WIND    PRES   REMARKS
ELLENSBURG AP   CLOUDY      22  17  81  CALM    30.14R
#ELLENSBURG CWU N/A         20  18  92  S5      30.19S
#ELLENSBURG 3NE N/A         19  17  92  CALM    28.21S
#ELLENSBURG 1E  N/A         20  N/A N/A CALM    N/A
#KITTITAS 4N    N/A         20  16  84  W3      30.16R
#KITTITAS 3S    N/A         22  17  81  E7      30.24R
#THORP 6N       N/A         17  15  92  SE3     30.29R
$$

WAZ027-090910-
YAKIMA VALLEY

CITY            SKY/WX      TMP DP  RH  WIND    PRES   REMARKS
SUNNYSIDE AP    CLOUDY      22  19  88  W5      30.22R
YAKIMA AIRPORT  LGT SNOW    24  20  84  W7      30.20R
YAKIMA-VAGABOND LGT SNOW SH 22  16  77  E6      30.15R
#DONALD 2NE     N/A         20  11  67  CALM    29.04R
#GRANDVIEW      N/A         22  19  88  NW3     30.29R
#MABTON         N/A         24  22  92  W2      30.22R
#NACHES 2SW     N/A         20  18  92  CALM    30.14R
#TERRACE HTS    N/A         22  18  84  CALM    30.24R
#TOPPENISH      N/A         22  20  92  CALM    30.19R
#WEST VALLEY    N/A         22  19  88  CALM    30.26R
#W YAKIMA       N/A         21  19  92  CALM    30.27R
#WHITE SWAN 5E  N/A         22  20  92  CALM    30.28R
#WILEY CITY 3W  N/A         20  15  81  CALM    30.14R
$$

WAZ028-090910-
LOWER COLUMBIA BASIN...WASHINGTON

CITY            SKY/WX      TMP DP  RH  WIND    PRES   REMARKS
PASCO           CLOUDY      25  23  92  NW10    30.22S
PROSSER AWOS    N/A         23  21  92  W8      30.25R
RICHLAND AWOS   CLOUDY      26  23  88  MISG    30.24R
#BENTON CITY    N/A         23  20  88  CALM    30.16R
#CONNELL 5N     N/A         22  19  88  NE2     30.24S
#CONNELL 5NW    N/A         22   1  39  CALM    30.21R
#ELTOPIA 6NW    N/A         22  21  96  CALM    29.14R
#KAHLOTUS       N/A         22  20  92  SE1     30.24R
#KENNEWICK 3S   N/A         23  21  92  CALM    30.27R
#PATERSON       N/A         24  20  84  CALM    30.25R
#SAGEMOOR 2W    N/A         22  19  88  NW5     30.09R
#TOUCHET 2S     N/A         21  19  92  CALM    30.24R
#WEST PASCO     N/A         25  22  88  W5      30.39R
$$

WAZ029-090910-
FOOTHILLS OF THE BLUES...WASHINGTON

CITY            SKY/WX      TMP DP  RH  WIND    PRES   REMARKS
WALLA WALLA AP  CLOUDY      20  16  84  S9      30.16R
#CLYDE 6NW      N/A         19  17  92  S7      30.23R
#DAYTON SCHOOL  N/A         18  11  74  CALM    30.14R
#LOWDEN 2SE     N/A         21  19  92  CALM    30.19R
#PLEASANT VIEW 1N/A         17  15  92  S5      30.29R
#PRESCOTT       N/A         20  18  92  CALM    30.26R
#WHITMAN COLLEGEN/A         21  19  92  S1      30.31R
#WAITSBURG 5S   N/A         18  16  92  S6      30.37R
#WAITSBURG 8N   N/A         17  N/A N/A S5      29.94F
#WALLA WALLA U  N/A         23  20  88  CALM    30.26
#WHITMAN MISSIONN/A         22  20  92  CALM    30.27R
$$

WAZ030-090910-
BLUE MOUNTAINS...WASHINGTON

CITY            SKY/WX      TMP DP  RH  WIND    PRES   REMARKS
#DIXIE 5SE      N/A         14  12  92  SE3     29.94R
#SKI BLUEWOOD   N/A         21  18  88  SW5     29.91R
$$

ORZ009-041-WAZ024-090910-
COLUMBIA RIVER GORGE

CITY            SKY/WX      TMP DP  RH  WIND    PRES   REMARKS
THE DALLES AP   CLOUDY      25  22  88  CALM    30.26R
#ARLINGTON AIRPON/A         22  21  96  CALM    30.27R
#ARLINGTON HS   N/A         24  21  88  CALM    30.18R
#CELILO DOT     N/A         25  19  78  SW1     N/A
#LYLE           N/A         25  23  92  NE2     30.28R
#MOSIER 1S      N/A         22  17  81  CALM    N/A
#MURDOCK        N/A         25  22  88  CALM    30.23S
#RUFUS DOT      N/A         26  22  85  SE6     N/A
#SMITHVILLE     N/A         25  22  88  NE2     30.21R

$$

ORZ510-090910-
NORTH CENTRAL OREGON

CITY            SKY/WX      TMP DP  RH  WIND    PRES   REMARKS
#ANTELOPE       N/A         10   7  87  CALM    30.13R
#CHENOWITH 1W   N/A         18  17  96  E5      N/A
#COW CYN RST AREN/A         11  N/A N/A NE1     N/A
#DUFUR 9E       N/A         16  14  92  NW3     30.34R
#GRASS VALLEY 1SN/A         14  12  92  CALM    30.02S
#KENT DOT       N/A         13   8  80  CALM    N/A
#MAUPIN SCHOOL  N/A         20  16  84  CALM    30.22R
#MORO SCHOOL    N/A         17  16  96  CALM    30.11R
#SHANIKO 5WSW   N/A         12   7  80  N6      N/A
#SHANIKO 4NW    N/A         12  10  91  S5      29.97R
#TYGH VALLEY 2NEN/A         19  16  88  CALM    30.22R
#WAPANITIA AIRPON/A         16  14  92  CALM    30.27S
#WASCO DOT      N/A         18  15  88  CALM    N/A
#WASCO 5NE      N/A         17  15  92  CALM    30.26R
$$

ORZ511-090910-
CENTRAL OREGON

CITY            SKY/WX      TMP DP  RH  WIND    PRES   REMARKS
BEND AIRPORT    CLOUDY      16  12  84  CALM    30.01R
MADRAS AIRPORT  FRZFOG       7   5  91  CALM    30.10S VSB 1/4
PRINEVILLE AP   CLOUDY      18  16  92  CALM    30.02R
REDMOND AIRPORT CLOUDY      16  11  80  CALM    30.03S
#ASHWOOD SCHOOL N/A         13   9  84  CALM    30.03S
#BEND 1SW       N/A         17  14  88  CALM    N/A
#BEND-AWBREY    N/A         15  13  92  CALM    30.24S
#BEND-KIM LN    N/A         14  12  92  CALM    29.95R
#CULVER         N/A         15  12  88  CALM    30.19S
#CULVER 8W      N/A         16   9  73  CALM    30.06R
#LAKE BILLY CHINN/A         16  N/A N/A CALM    30.22R
#MADRAS 4S      N/A         12  -7  41  CALM    30.15R
#POWELL BUTTE 3EN/A         15  12  88  SW1     N/A
#POWELL BUTTE   N/A         15  10  80  CALM    29.95S
#PRINEVILLE 3N  N/A         17  15  92  CALM    30.23R

$$


ORZ509-090910-
EAST SLOPES OF OREGON CASCADES

CITY            SKY/WX      TMP DP  RH  WIND    PRES   REMARKS
SISTERS AWOS    N/A         16  12  84  CALM    29.98S
#BLUE BOX PASS  N/A         12  N/A N/A CALM    N/A
#CAMP SHERMAN   N/A         17  12  80  CALM    30.28S
#LA PINE 4NW    N/A         25  22  88  CALM    30.23R
#LAVA BUTTE DOT N/A         22  19  88  CALM    N/A
#SISTERS AIRPOR N/A         14  14  100 CALM    30.17S
#SISTERS ODOT   N/A         15  N/A N/A CALM    N/A
#SISTERS 3N     N/A         16   9  73  CALM    30.06R
#SUNRIVER       N/A         17  15  92  CALM    30.22S
#SUTTLE LK DOT  N/A         10  10  100 E1      N/A
#TUMALO 3W      N/A         13  11  91  CALM    30.14R
#WANOGA BUTTE D N/A         33  33  100 NW18    N/A    WCI 22

$$

ORZ044-090910-
LOWER COLUMBIA BASIN...OREGON

CITY            SKY/WX      TMP DP  RH  WIND    PRES   REMARKS
HERMISTON       CLOUDY      23  20  88  CALM    30.21R
#BOARDMAN SCHOOLN/A         27  23  85  N2      30.24R
#BOARDMAN 8SW   N/A         23  21  92  N2      30.27R
#ECHO 8SW       N/A         23  20  88  W1      30.22R
#I-84 EX 198 DOTN/A         20  18  92  N2      N/A
#UMATILLA       N/A         24  20  84  CALM    30.21R
$$

ORZ507-090910-
NORTHERN FOOTHILLS OF THE BLUES

CITY            SKY/WX      TMP DP  RH  WIND    PRES   REMARKS
PENDLETON AIRPT LGT SNOW    18  14  84  CALM    30.13R FOG
#ADAMS 3WNW     N/A         17  15  92  CALM    30.27S
#ATHENA         N/A         17  15  92  CALM    30.31R
#CAYUSE         N/A         18  16  92  CALM    30.26R
#HELIX SCHOOL   N/A         17  15  92  CALM    30.27S
#HELIX 3N       N/A         17  15  92  CALM    30.07R
#HOLDMAN 5SE    N/A         19  17  92  CALM    30.14R
#HOLDMAN 6E     N/A         17  16  96  CALM    30.06S
#M-F GROVE ELEM N/A         21  15  77  SW3     30.14R
#M-FREEWATER 5SEN/A         19  17  92  CALM    30.15R
#PENDLETON DNTN N/A         20  15  81  CALM    30.19R
#PDT AQUATIC CTRN/A         19  16  88  CALM    30.16R
#PDT SUNRIDGE   N/A         19  17  92  CALM    30.18R
#PENDLETON 7NW  N/A         20  15  81  CALM    32.01F
#PILOT ROCK 1S  N/A         20  12  71  CALM    30.13R
#PILOT ROCK     N/A         21  17  84  CALM    30.13R
#TUTUILLA       N/A         20  17  88  CALM    30.24R
#UMAPINE 2E     N/A         23  20  88  CALM    30.17R
#WESTON SCHOOL  N/A         18  13  80  CALM    30.02R

$$

ORZ508-090910-
SOUTHERN FOOTHILLS OF THE BLUES

CITY            SKY/WX      TMP DP  RH  WIND    PRES   REMARKS
LEXINGTON       LGT SNOW    19  19  100 CALM    30.18R
#AJAX           N/A         18   9  67  N2      27.84S
#CONDON SCHOOL  N/A         17  15  92  N2      30.00R
#CONDON 5W      N/A         14  10  84  E2      29.98R
#HEPPNER EOC    N/A         17  15  92  CALM    30.21R
#HEPPNER 4NE    N/A         15  13  92  CALM    30.28S
#LEXINGTON 2SE  N/A         20  17  88  CALM    30.13R
#MIKKALO        N/A         20  15  81  E2      30.24R
#OLEX 4N        N/A         21  19  92  CALM    30.16S
#RUGGS 5NE      N/A         15  13  92  W3      30.20R
#RUGGS 2SW      N/A         16  14  92  CALM    30.30S

$$

ORZ502-503-090910-
BLUE MOUNTAINS

CITY            SKY/WX      TMP DP  RH  WIND    PRES   REMARKS
MEACHAM         CLOUDY      23  18  81  CALM    29.98R
#BATTLE MTN DOT N/A         19  17  92  S5      N/A
#GREENHORN 9SW  N/A         21  20  96  CALM    26.22R
#HEPPNER 15SE   N/A         16  13  88  CALM    29.96R
#LADD CYN SMT   N/A         21  19  92  SE20    N/A    WCI  6
#LADD CREEK ODOTN/A         24  -23 11  S8      N/A
#LONG CREEK HS  N/A         22  22  100 CALM    29.98R
#N POWDER DOT   N/A         22  19  88  SW7     N/A
#PIKES PEAK     N/A         14  10  84  CALM    27.99S
#TOLLGATE       N/A         21  20  96  CALM    29.79R
#TROY SCHOOL    N/A         23  20  88  CALM    30.10R
#UKIAH          N/A         21  19  92  CALM    30.23F
#WESTON 4E      N/A         14  12  92  SW2     30.19R
$$

ORZ505-090910-
JOHN DAY BASIN

CITY            SKY/WX      TMP DP  RH  WIND    PRES   REMARKS
JOHN DAY        CLOUDY      29  24  81  E8      29.99R
#ANTELOPE 9ESE  N/A         20  17  88  CALM    N/A
#DAYVILLE SCHOOLN/A         26  21  81  N2      30.01R
#MITCHELL       N/A         17  15  92  CALM    30.21F
#MITCHELL 8NW   N/A         15  13  92  CALM    30.13S
#MONUMENT HS    N/A         23  19  84  CALM    30.12R
#MT. VERNON 5SE N/A         30  25  81  SW1     29.92R
#SPRAY SCHOOL   N/A         22  N/A N/A CALM    N/A
$$

ORZ506-090910-
OCHOCO AND JOHN DAY HIGHLANDS

CITY            SKY/WX      TMP DP  RH  WIND    PRES   REMARKS
#BUCK CREEK DOT N/A         25  25  100 NE10    N/A
#HORSE RIDGE DO N/A          4  -1  79  W2      N/A
#KEYES SMT DOT  N/A         22  19  88  NE5     N/A
#PAULINA SCHOOL N/A         25  24  96  CALM    N/A
#PINE MTN OBS   N/A         34  33  96  S15G29  N/A    WCI 24
#PRAIRIE CITY   N/A         27  19  71  CALM    30.16R
#SENECA         N/A         24  N/A N/A SW3     N/A
#SENECA 9NW     N/A         21  19  92  CALM    30.24S
$$

ORZ049-090910-
GRANDE RONDE VALLEY

CITY            SKY/WX      TMP DP  RH  WIND    PRES   REMARKS
LA GRANDE       CLOUDY      27  16  63  S16G29  30.05R WCI 15
#COVE           N/A         29  25  85  CALM    30.08R
#COVE SCHOOL    N/A         29  24  81  NE1     30.06R
#COVE 6NW       N/A         27  22  81  S6      30.24R
#ELGIN 3N       N/A         24  17  74  CALM    30.03R
#IMBLER SCHOOL  N/A         25  22  88  S2      30.01R
#ISLAND CITY 4N N/A         31  30  96  CALM    30.05R
#LADD CYN DOT   N/A         26  21  81  S31     N/A    WCI  9
#UNION 1S       N/A         26  20  78  S9      30.25R
$$

ORZ050-090910-
WALLOWA COUNTY

CITY            SKY/WX      TMP DP  RH  WIND    PRES   REMARKS
JOSEPH AIRPORT  CLOUDY      18  14  84  CALM    29.99R
#IMNAHA SCHOOL  N/A         23  20  88  N2      30.10R
#JOSEPH 3N      N/A         17  12  80  CALM    30.01S
#JOSEPH 3W      N/A         N/A N/A N/A CALM    29.81R
#LOSTINE        N/A         18  16  92  CALM    30.10R
#LOSTINE 3SE    N/A         19  17  92  CALM    30.02R
#MT HOWARD 8000 N/A         26  21  81  SW25G56 29.79R WCI 11
#PROMISE 1S     N/A         18  16  92  NW1     30.34R
#WALLOWA SCHOOL N/A         17  15  92  CALM    30.03R



$$



USA.gov is the U.S. government's official web portal to all federal, state and local government web resources and services.